Total_Precipitation_Accumulation
1.68 1.79 1.80 1.79 1.85 1.88 1.76 1.61 1.56 1.54 1.57 1.64 1.79 1.86 1.80 1.79 1.90 1.97 1.93 2.15 2.25 2.25 2.21 2.21 2.16 2.23 2.23 2.14 2.19 2.33 2.51 2.55 2.25 1.83 1.76 1.74 1.70 1.57 1.50 1.39 1.27 1.21 1.04
1.58 1.77 1.86 1.87 1.90 1.85 1.68 1.54 1.54 1.56 1.62 1.68 1.78 1.78 1.69 1.70 1.85 1.88 1.92 2.10 2.17 2.09 2.04 2.05 1.89 1.93 1.96 1.85 1.96 2.03 2.13 2.32 2.27 2.02 2.00 2.00 1.96 1.84 1.76 1.69 1.52 1.32 1.10
1.54 1.87 2.03 2.04 1.97 1.89 1.71 1.53 1.49 1.52 1.61 1.66 1.67 1.68 1.71 1.82 1.89 1.87 1.84 1.80 1.77 1.81 1.97 2.04 1.85 1.82 1.74 1.74 1.78 1.76 1.82 1.95 2.10 2.05 2.01 2.07 2.02 1.98 1.88 1.70 1.59 1.46 1.18
1.44 1.63 1.74 1.66 1.63 1.64 1.57 1.47 1.41 1.41 1.49 1.58 1.64 1.72 1.78 1.83 1.85 1.88 1.87 1.78 1.71 1.70 1.78 1.81 1.77 1.73 1.68 1.76 1.71 1.71 1.74 1.85 1.97 1.99 1.97 2.08 2.10 2.01 2.01 1.83 1.81 1.68 1.49
1.16 1.28 1.41 1.42 1.40 1.38 1.42 1.45 1.42 1.50 1.53 1.60 1.67 1.70 1.69 1.69 1.58 1.57 1.60 1.58 1.64 1.57 1.49 1.49 1.49 1.54 1.54 1.53 1.43 1.56 1.71 1.79 1.82 1.85 1.87 2.03 2.20 2.24 2.06 1.96 2.01 1.96 1.79
1.03 1.14 1.35 1.47 1.49 1.47 1.49 1.55 1.54 1.54 1.57 1.61 1.60 1.67 1.66 1.43 1.51 1.50 1.49 1.60 1.69 1.67 1.57 1.49 1.41 1.36 1.28 1.23 1.21 1.28 1.48 1.62 1.67 1.74 1.75 1.87 2.07 2.27 2.32 2.26 2.16 2.09 2.05
1.14 1.28 1.46 1.55 1.63 1.64 1.57 1.64 1.57 1.60 1.68 1.65 1.60 1.59 1.63 1.68 1.68 1.51 1.37 1.37 1.48 1.51 1.50 1.48 1.33 1.22 1.31 1.26 1.25 1.22 1.24 1.34 1.42 1.55 1.64 1.67 1.81 2.04 2.27 2.23 2.30 2.33 2.31
1.37 1.56 1.66 1.75 1.71 1.67 1.66 1.68 1.74 1.83 1.85 1.82 1.76 1.69 1.70 1.69 1.61 1.41 1.37 1.33 1.39 1.42 1.45 1.46 1.45 1.37 1.38 1.45 1.44 1.38 1.27 1.22 1.24 1.27 1.35 1.47 1.67 1.93 2.19 2.17 2.18 2.27 2.32
1.46 1.60 1.76 1.86 1.86 1.87 1.89 1.84 1.87 1.95 1.92 1.87 1.85 1.88 1.84 1.86 1.87 1.67 1.62 1.51 1.55 1.58 1.59 1.58 1.55 1.48 1.56 1.49 1.41 1.38 1.31 1.26 1.25 1.29 1.27 1.40 1.60 1.70 1.87 1.96 1.95 2.01 1.96
1.49 1.61 1.77 1.97 2.01 2.05 2.18 2.22 2.13 2.08 1.98 2.03 2.05 2.05 2.05 2.10 2.27 2.04 1.83 1.68 1.73 1.74 1.82 1.78 1.75 1.61 1.60 1.50 1.37 1.38 1.34 1.33 1.39 1.36 1.30 1.30 1.35 1.51 1.68 1.72 1.85 1.98 1.88
1.50 1.62 1.82 1.98 2.07 2.13 2.27 2.36 2.34 2.31 2.29 2.23 2.17 2.20 2.19 2.20 2.33 2.07 1.87 1.77 1.85 1.93 1.90 1.82 1.85 1.81 1.62 1.59 1.49 1.43 1.45 1.43 1.43 1.43 1.38 1.36 1.39 1.47 1.53 1.60 1.79 1.94 1.94
1.42 1.53 1.66 1.82 1.87 1.95 2.18 2.28 2.36 2.38 2.34 2.25 2.17 2.06 2.07 2.07 2.02 1.91 1.78 1.70 1.78 1.92 1.99 1.90 1.85 1.78 1.54 1.45 1.33 1.31 1.31 1.20 1.16 1.27 1.30 1.31 1.30 1.29 1.34 1.48 1.63 1.70 1.74
1.48 1.60 1.73 1.81 1.88 1.99 2.08 2.10 2.16 2.22 2.20 2.11 2.08 2.00 1.97 1.99 1.97 1.74 1.51 1.45 1.47 1.54 1.72 1.81 1.68 1.54 1.33 1.17 1.12 1.09 0.99 0.89 0.93 1.01 1.02 1.02 1.01 1.06 1.18 1.34 1.51 1.57 1.53
1.55 1.60 1.67 1.78 1.81 1.84 1.95 2.04 2.14 2.23 2.32 2.22 2.10 2.01 1.96 1.91 1.80 1.61 1.42 1.33 1.39 1.47 1.56 1.62 1.48 1.35 1.17 1.07 1.00 0.91 0.85 0.89 0.94 0.96 0.97 1.00 1.05 1.10 1.15 1.20 1.30 1.40 1.43
1.42 1.47 1.52 1.55 1.64 1.71 1.76 1.84 1.87 1.95 1.95 1.94 1.88 1.86 1.85 1.79 1.63 1.53 1.39 1.28 1.33 1.43 1.49 1.54 1.43 1.37 1.30 1.21 1.13 1.07 1.05 1.05 1.00 0.99 1.04 1.05 1.05 1.10 1.11 1.13 1.25 1.27 1.21
1.49 1.52 1.45 1.42 1.47 1.52 1.55 1.54 1.52 1.45 1.44 1.40 1.41 1.41 1.41 1.35 1.25 1.13 1.10 1.09 1.12 1.25 1.31 1.47 1.54 1.50 1.46 1.38 1.27 1.16 1.11 1.07 1.02 1.04 1.07 1.08 1.08 1.10 1.16 1.14 1.20 1.23 1.15
1.38 1.42 1.40 1.38 1.44 1.43 1.45 1.47 1.50 1.42 1.30 1.22 1.20 1.19 1.21 1.18 1.14 1.10 1.11 1.15 1.12 1.17 1.22 1.38 1.45 1.40 1.37 1.31 1.19 1.07 1.02 1.04 1.10 1.12 1.14 1.14 1.18 1.20 1.25 1.22 1.19 1.23 1.19
1.19 1.25 1.32 1.40 1.45 1.51 1.53 1.57 1.64 1.70 1.63 1.45 1.29 1.19 1.12 1.06 1.01 1.01 1.04 1.04 1.02 1.04 1.14 1.26 1.28 1.22 1.19 1.16 1.12 1.06 1.04 1.09 1.18 1.17 1.16 1.17 1.19 1.21 1.23 1.24 1.20 1.18 1.17
1.10 1.11 1.12 1.20 1.27 1.34 1.35 1.41 1.49 1.58 1.61 1.51 1.36 1.22 1.09 1.01 0.94 0.92 0.90 0.87 0.93 1.03 1.16 1.19 1.20 1.20 1.13 1.08 1.08 1.02 1.00 1.03 1.11 1.17 1.15 1.17 1.17 1.19 1.19 1.17 1.21 1.20 1.11
1.07 1.06 1.04 1.04 1.04 1.04 1.06 1.14 1.23 1.32 1.38 1.31 1.21 1.10 0.98 0.92 0.82 0.77 0.73 0.74 0.81 0.89 0.97 1.03 1.06 1.03 0.96 0.97 0.98 0.96 0.94 1.00 1.10 1.13 1.11 1.14 1.19 1.19 1.12 1.10 1.11 1.14 1.07
1.06 1.02 0.99 0.97 0.95 0.94 0.96 1.00 1.05 1.08 1.13 1.08 1.00 0.87 0.78 0.72 0.64 0.60 0.61 0.67 0.77 0.86 0.93 0.97 0.96 0.91 0.89 0.92 0.96 0.98 0.95 1.00 1.07 1.09 1.10 1.14 1.19 1.19 1.12 1.09 1.07 1.08 1.09
1.01 0.91 0.85 0.83 0.87 0.89 0.90 0.95 1.00 1.00 0.97 0.92 0.85 0.70 0.66 0.60 0.53 0.51 0.54 0.60 0.67 0.79 0.81 0.81 0.84 0.83 0.81 0.82 0.88 0.94 0.98 1.02 1.10 1.12 1.09 1.11 1.16 1.17 1.18 1.15 1.15 1.12 1.12
1.02 0.90 0.81 0.76 0.76 0.78 0.80 0.88 0.92 0.89 0.82 0.75 0.69 0.64 0.62 0.64 0.54 0.51 0.56 0.64 0.69 0.71 0.68 0.69 0.75 0.78 0.79 0.81 0.82 0.90 0.97 1.02 1.06 1.06 1.12 1.15 1.14 1.12 1.13 1.09 1.09 1.10 1.09
0.98 0.91 0.82 0.71 0.71 0.77 0.80 0.84 0.86 0.84 0.77 0.70 0.66 0.63 0.63 0.66 0.61 0.59 0.63 0.73 0.72 0.65 0.63 0.67 0.70 0.72 0.76 0.82 0.81 0.82 0.87 0.93 0.92 0.92 0.94 0.99 1.01 1.03 1.05 1.04 1.04 1.03 1.05
0.94 0.88 0.78 0.67 0.64 0.68 0.72 0.77 0.81 0.81 0.76 0.68 0.66 0.66 0.69 0.72 0.68 0.66 0.67 0.68 0.65 0.61 0.57 0.61 0.67 0.69 0.72 0.74 0.76 0.76 0.76 0.74 0.74 0.78 0.81 0.86 0.92 0.99 1.05 1.05 1.05 1.04 1.03
0.84 0.77 0.70 0.62 0.56 0.57 0.63 0.71 0.71 0.70 0.67 0.64 0.62 0.63 0.63 0.63 0.61 0.56 0.54 0.53 0.53 0.52 0.53 0.58 0.64 0.65 0.69 0.71 0.64 0.61 0.58 0.53 0.56 0.65 0.68 0.75 0.87 0.95 0.99 1.04 1.02 1.03 1.01